Weather History for Philip, SD

Change the Weather History Date:

Monday, June 17, 2013

  Actual Average Record
Temperature  
Mean Temperature 67 °F 68 °F  
Max Temperature 82 °F 81 °F 100 °F (1989)
Min Temperature 52 °F 54 °F 39 °F (2000)
Degree Days  
Heating Degree Days 0 2  
Month to date heating degree days 64 49  
Since 1 June heating degree days 64 49  
Since 1 July heating degree days 7086 7183  
Cooling Degree Days 2 4  
Month to date cooling degree days 25 49  
Year to date cooling degree days 46 76  
Since 1 June cooling degree days 25 49  
Growing Degree Days 16 (Base 50)    
Moisture  
Dew Point 54 °F    
Average Humidity 65    
Maximum Humidity 93    
Minimum Humidity 36    
Precipitation  
Precipitation 0.00 in 0.11 in 1.82 in (1962)
Month to date precipitation 0.43 1.68  
Year to date precipitation 5.99 8.60  
Sea Level Pressure  
Sea Level Pressure 30.05 in    
Wind  
Wind Speed 5 mph (NNW)    
Max Wind Speed 15 mph    
Max Gust Speed 17 mph    
Visibility 10 miles    
Events Thunderstorm    
T = Trace of Precipitation, MM = Missing Value Source: NWS Daily Summary

Daily Weather History Graph

Daily Weather History Graph

Search for Another Location

Airport:

Trip Planner

Search our weather history database for the weather conditions in past years. The results will help you decide how hot, cold, wet, or windy it might be!

Date:

Astronomy

Jun. 17, 2013 Rise Set
Actual Time 5:02 AM MDT 8:32 PM MDT
Civil Twilight 4:26 AM MDT 9:08 PM MDT
Nautical Twilight 3:38 AM MDT 9:56 PM MDT
Astronomical Twilight 2:37 AM MDT 10:57 PM MDT
Moon 2:02 PM MDT (6/17) 12:51 AM MDT (6/17)
Length of Visible Light 16h 42m
Length of Day
15h 29m
First Quarter, 61% of the Moon is Illuminated
Jun 17
First Quarter
Jun 23
Full
Jun 29
Last Quarter
Jul 8
New
Jul 15
First Quarter

Hourly Weather History & Observations

Time (MDT) Temp. Dew Point Humidity Pressure Visibility Wind Dir Wind Speed Gust Speed Precip Events Conditions
12:55 AM 57.9 °F 55.9 °F 93% 30.03 in 10.0 mi WNW 4.6 mph - N/A   Clear
1:55 AM 55.9 °F 54.0 °F 93% 30.04 in 10.0 mi WSW 3.5 mph - N/A   Clear
2:55 AM 55.0 °F 54.0 °F 96% 30.03 in 10.0 mi SW 8.1 mph - N/A   Clear
3:55 AM 55.0 °F 54.0 °F 96% 30.04 in 10.0 mi West 6.9 mph - N/A   Clear
4:55 AM 53.1 °F 52.0 °F 96% 30.04 in 10.0 mi WNW 3.5 mph - N/A   Clear
5:55 AM 55.9 °F 54.0 °F 93% 30.07 in 10.0 mi WNW 5.8 mph - N/A   Clear
6:55 AM 60.1 °F 55.9 °F 86% 30.07 in 10.0 mi NNW 3.5 mph - N/A   Clear
7:55 AM 64.9 °F 54.0 °F 68% 30.07 in 10.0 mi NNE 9.2 mph - N/A   Clear
8:55 AM 66.0 °F 53.1 °F 63% 30.09 in 10.0 mi NE 8.1 mph - N/A   Partly Cloudy
9:55 AM 71.1 °F 53.1 °F 53% 30.09 in 10.0 mi Variable 5.8 mph - N/A   Clear
10:55 AM 73.0 °F 51.1 °F 46% 30.10 in 10.0 mi Calm Calm - N/A   Clear
11:55 AM 77.0 °F 52.0 °F 42% 30.07 in 10.0 mi Variable 3.5 mph - N/A   Clear
12:55 PM 77.0 °F 50.0 °F 39% 30.05 in 10.0 mi Calm Calm - N/A   Clear
1:55 PM 80.1 °F 52.0 °F 38% 30.03 in 10.0 mi Variable 4.6 mph - N/A   Clear
2:55 PM 80.1 °F 52.0 °F 38% 30.02 in 10.0 mi NE 9.2 mph - N/A   Partly Cloudy
3:55 PM 78.1 °F 53.1 °F 42% 30.04 in 10.0 mi SSE 5.8 mph - N/A   Overcast
4:55 PM 75.0 °F 55.0 °F 50% 30.04 in 10.0 mi South 8.1 mph - N/A   Overcast
5:25 PM 77.0 °F 55.4 °F 47% 30.05 in 10.0 mi South 4.6 mph - N/A Thunderstorm Overcast
5:55 PM 77.0 °F 54.0 °F 45% 30.02 in 10.0 mi SSE 6.9 mph - N/A   Mostly Cloudy
6:55 PM 71.1 °F 59.0 °F 66% 30.02 in 10.0 mi ENE 6.9 mph - N/A   Partly Cloudy
7:55 PM 68.0 °F 57.9 °F 70% 30.02 in 10.0 mi ENE 5.8 mph - N/A   Clear
8:55 PM 64.9 °F 57.9 °F 78% 30.04 in 10.0 mi Calm Calm - N/A   Clear
9:55 PM 62.1 °F 57.0 °F 84% 30.05 in 10.0 mi Calm Calm - N/A   Clear
10:55 PM 57.9 °F 55.9 °F 93% 30.04 in 10.0 mi Calm Calm - N/A   Clear
11:55 PM 57.9 °F 55.9 °F 93% 30.04 in 10.0 mi NE 5.8 mph - N/A   Clear